SCP
0 0 0 0 0 0 0 0 0 0 -0 -0 0 0 0 0 0 -0 -0 -0 -0 -0 -0 -0 -0 -0 -0 0 0 0 0 0 0 0 0 0 0 -0 0 -0 -0 -0 0 -0
0 0 0 0 0 0 0 0 0 0 0 0 0 0 0 0 -0 -0 -0 -0 -0 -0 -0 -0 -0 -0 -0 -0 0 -0 0 0 0 0 -0 -0 -0 0 -0 -0 -0 -0 0 0
0 0 0 0 0 0 0 0 0 0 0 0 0 0 0 -0 0 -0 -0 -0 -0 -0 -0 -0 -0 -0 -0 -0 -0 -0 0 0 0 0 0 -0 0 0 -0 -0 -0 0 -0 -0
0 0 0 0 0 0 0 0 0 0 0 -0 0 0 0 0 -0 -0 -0 -0 -0 -0 -0 -0 -0 -0 -0 -0 -0 -0 -0 0 0 0 0 0 0 0 0 0 -0 -0 -0 -0
0 0 0 0 0 0 0 0 0 0 -0 -0 -0 -0 0 0 0 0 -0 -0 -0 -0 -0 -0 -0 -0 -0 -0 -0 -0 -0 -0 0 0 0 0 0 0 0 0 -0 0 0 -0
0 0 0 0 0 0 0 0 0 0 0 0 -0 0 0 0 0 -0 -0 -0 -0 -0 -0 -0 -0 -0 -0 -0 -0 -0 -0 -0 -0 0 0 0 0 0 0 0 0 0 0 0
0 0 0 0 0 0 0 0 0 0 0 0 0 0 0 0 0 -0 0 -0 -0 -0 -0 -0 -0 -0 -0 -0 -0 -0 -0 -0 -0 -0 0 0 0 0 0 0 0 0 0 0
0 0 0 0 0 0 0 0 0 0 0 0 0 0 -0 -0 0 -0 -0 -0 -0 -0 -0 -0 -0 -0 -0 -0 -0 -0 -0 -0 -0 -0 0 -0 0 0 0 0 0 0 0 0
0 0 0 0 0 0 0 0 0 0 0 0 0 0 -0 -0 0 0 -0 0 -0 -0 -0 -0 -0 -0 -0 -0 -0 -0 -0 -0 -0 -0 0 0 -0 -0 0 0 0 0 0 0
0 0 0 0 0 0 0 0 0 0 0 0 0 0 0 0 -0 0 -0 -0 0 -0 -0 -0 -0 -0 -0 -0 -0 -0 -0 -0 -0 -0 -0 -0 -0 -0 0 0 0 0 0 0
0 0 0 0 0 0 0 0 0 0 0 0 0 0 0 0 0 0 0 0 0 0 -0 -0 -0 -0 -0 -0 -0 -0 -0 -0 -0 -0 -0 -0 -0 0 0 0 0 0 0 0
0 0 0 0 0 0 0 0 0 0 0 0 0 0 0 0 0 0 0 0 0 -0 0 -0 -0 -0 -0 -0 -0 -0 -0 -0 -0 -0 -0 -0 -0 -0 -0 -0 -0 -0 -0 -0
0 0 0 0 0 0 0 0 0 0 0 0 0 0 0 0 0 0 0 0 0 0 0 -0 -0 -0 -0 -0 -0 -0 -0 -0 -0 -0 -0 -0 -0 -0 0 -0 -0 -0 -0 0
0 0 0 0 0 0 0 0 0 0 0 0 0 0 0 0 0 0 0 0 0 0 0 0 0 -0 -0 -0 -0 -0 -0 -0 -0 -0 -0 -0 -0 -0 -0 0 -0 -0 -0 -0
0 0 0 0 0 0 0 0 0 0 0 0 0 0 0 0 0 0 0 0 0 0 0 0 0 0 0 -0 -0 0 0 0 0 0 0 0 0 -0 -0 -0 -0 -0 -0 -0
0 0 0 0 0 0 0 0 0 0 0 0 0 0 0 0 0 0 0 0 0 0 0 0 0 0 0 0 0 0 0 0 0 0 0 0 0 0 0 -0 -0 0 0 -0
0 0 0 0 0 0 0 0 0 0 0 0 0 0 0 0 0 0 0 0 0 0 0 0 0 0 0 0 0 0 0 0 0 0 0 0 0 0 0 0 0 0 0 0
0 0 0 0 0 0 0 0 0 0 0 0 0 0 0 0 0 0 0 0 0 0 0 0 0 0 0 0 0 0 0 0 0 0 0 0 0 0 0 0 0 0 0 0
0 0 0 0 0 0 0 0 0 0 0 0 0 0 0 0 0 0 0 0 0 0 0 0 0 0 0 0 0 0 0 0 0 0 0 0 0 0 0 0 0 0 0 0
0 0 0 0 0 0 0 0 0 0 0 0 0 0 0 0 0 0 0 0 0 0 0 0 0 0 0 0 0 0 0 0 0 0 0 0 0 0 0 0 0 0 0 0
-0 0 0 0 0 0 0 0 0 -0 0 0 0 0 0 0 0 0 0 0 0 0 0 0 0 0 0 0 0 0 0 0 0 0 0 0 0 0 0 0 0 0 0 0
-0 0 0 0 0 0 0 0 0 0 0 0 0 0 0 0 0 0 0 0 0 0 0 0 0 0 0 0 0 0 0 0 0 0 0 0 0 0 0 0 0 0 0 0
0 0 0 -0 0 0 0 0 0 0 0 0 0 0 0 0 0 0 0 0 0 0 0 0 0 0 0 0 0 0 0 0 0 0 0 0 0 0 0 0 0 0 0 0
-0 0 0 0 -0 -0 0 0 0 0 0 0 0 0 0 0 0 0 0 0 0 0 0 0 0 0 0 0 0 0 0 0 0 0 -0 0 0 0 0 0 0 0 0 0
-0 0 0 0 0 -0 0 0 0 0 0 0 0 0 0 0 0 0 0 0 0 0 0 0 0 -0 0 0 0 0 0 0 0 0 0 0 0 0 0 0 0 0 0 0
-0 -0 -0 -0 -0 -0 -0 -0 0 0 0 0 0 0 0 0 0 0 0 0 0 0 0 0 0 0 1 0 0 0 0 0 0 0 0 0 0 0 0 0 0 0 0 0
-0 -0 -0 -0 -0 -0 -0 -0 -0 -0 -0 0 0 0 0 0 0 0 0 0 0 0 0 0 0 0 0 0 0 0 0 0 0 0 0 0 0 0 0 0 0 0 0 0
Wind_Speed_500mb
26 26 17 6 48 43 48 40 29 22 47 42 29 19 2 19 32 41 46 50 56 58 55 54 50 43 37 33 30 24 18 14 10 9 11 19 16 20 21 22 24 25 27 26
19 17 18 15 16 47 46 46 28 18 33 35 29 9 8 26 41 47 49 51 54 56 57 57 52 47 42 36 34 28 20 15 13 13 17 21 17 22 21 25 28 28 25 23
31 7 9 18 26 22 34 47 42 34 33 3 9 15 16 31 47 52 53 56 60 63 65 59 54 50 47 40 38 32 25 18 18 19 22 27 21 20 22 22 22 20 19 20
5 3 18 6 24 27 25 11 32 41 36 29 36 51 28 29 51 53 51 55 59 65 67 57 53 50 47 43 41 36 31 23 24 22 24 27 21 21 20 20 18 13 12 18
5 13 3 8 19 12 8 10 22 15 22 27 31 28 33 33 54 57 65 61 63 65 65 58 57 54 52 48 45 41 37 30 31 27 29 28 23 21 20 22 21 18 17 22
3 8 21 12 26 11 3 14 26 23 21 23 27 20 27 14 38 55 53 58 59 63 66 60 59 58 56 53 50 48 41 36 33 33 31 29 23 23 23 29 30 27 32 29
11 4 2 29 26 7 18 6 33 30 27 27 14 25 43 35 27 39 57 60 57 62 71 67 63 62 61 58 54 49 43 40 35 37 33 29 25 23 23 29 30 28 29 32
7 8 8 39 7 7 12 24 30 33 29 35 40 51 50 43 33 22 43 61 61 65 71 72 67 64 64 64 53 50 47 46 40 39 37 35 30 28 28 29 32 31 30 30
5 6 21 22 2 20 18 27 33 37 39 37 43 47 43 38 36 24 44 59 68 70 74 76 74 68 66 59 59 55 51 50 46 41 44 39 36 34 32 31 33 34 32 33
5 6 21 22 19 26 33 36 38 40 41 38 40 43 44 40 34 33 39 56 70 76 79 80 82 74 60 59 60 60 57 53 53 47 50 47 41 37 35 35 35 34 32 32
4 8 25 13 35 40 51 43 47 48 45 40 41 42 39 37 35 38 40 52 71 81 85 87 84 81 75 65 66 66 61 57 58 54 50 54 48 46 43 36 33 35 35 34
5 12 12 33 44 52 45 52 51 54 57 48 41 45 41 38 33 34 43 51 68 80 82 85 85 83 79 74 70 68 68 64 63 61 57 54 56 49 45 40 34 30 26 27
12 30 44 51 49 33 46 50 47 50 49 53 53 43 38 38 33 33 41 50 61 77 85 84 83 87 86 81 76 75 71 70 67 65 62 55 54 52 52 47 41 37 33 33
30 26 21 21 40 56 48 45 45 42 43 46 53 47 41 36 28 33 48 56 56 63 75 82 82 83 83 83 81 76 75 69 68 69 68 62 57 53 46 46 51 50 47 43
23 22 31 44 57 53 40 39 44 43 48 54 53 55 48 39 24 20 33 40 51 58 61 77 80 82 80 81 83 81 81 77 72 68 68 68 61 55 49 44 45 42 50 51
39 36 37 34 43 45 39 40 41 44 46 52 53 54 53 41 31 19 20 34 51 60 64 69 82 84 79 79 81 84 83 79 76 72 70 70 72 65 57 54 51 47 50 53
35 35 33 43 43 48 44 39 38 41 44 47 51 52 48 45 30 18 13 29 36 51 60 64 70 84 80 79 81 86 86 85 82 77 74 71 72 75 68 63 60 57 59 55
34 35 35 42 47 51 50 43 41 43 41 45 46 48 43 45 42 34 20 14 28 38 46 49 58 73 81 80 80 82 86 88 86 86 80 77 76 73 73 71 67 65 63 62
46 33 32 35 39 43 47 44 41 44 46 43 44 43 40 38 42 31 23 10 7 14 30 41 49 55 69 76 78 77 78 84 85 87 85 81 79 76 74 74 73 70 66 63
51 33 26 30 31 33 40 44 41 39 41 45 41 35 35 33 36 31 20 10 7 7 12 24 36 45 54 63 65 67 70 71 75 81 82 80 82 83 80 78 76 76 73 72
55 47 47 39 37 34 35 38 40 41 40 45 43 37 34 36 29 32 25 14 12 10 16 15 28 37 45 53 57 53 57 59 61 66 72 79 77 77 80 82 80 79 78 79
52 53 47 47 48 44 35 33 32 38 39 45 47 41 33 35 33 31 32 24 20 21 19 22 25 22 37 52 59 53 58 59 45 42 56 67 72 75 75 75 75 74 74 77
50 43 44 48 54 45 46 37 30 30 34 42 46 48 38 35 33 37 32 22 20 21 25 24 22 39 37 37 52 60 52 48 34 33 54 69 70 69 69 73 66 63 59 64
52 47 50 49 45 43 55 52 39 30 27 35 47 49 47 42 41 40 35 33 31 29 29 27 27 29 51 60 53 57 67 78 59 79 103 92 84 63 64 66 69 64 59 57
43 42 40 46 51 52 51 46 50 48 35 33 40 50 50 51 47 42 40 37 30 34 31 31 28 27 39 50 49 65 71 66 69 84 91 103 75 52 54 60 64 61 60 57
44 46 39 40 43 43 49 57 49 57 63 49 43 46 55 57 58 56 55 54 42 37 35 35 33 40 46 52 51 45 47 48 33 35 50 61 48 44 54 57 55 58 59 58
35 40 40 47 50 42 52 59 63 63 65 60 48 44 41 54 66 65 59 56 52 45 42 39 42 42 49 39 42 45 38 34 24 25 37 48 33 35 40 42 43 48 50 50
Wind_Direction_500mb
290 278 286 254 201 196 201 210 213 207 224 244 269 307 304 164 166 163 169 174 180 179 182 181 179 175 181 185 186 185 184 175 184 151 121 136 121 114 123 127 131 135 139 140
259 226 248 258 217 214 205 204 216 210 243 236 244 259 189 164 175 174 177 177 182 183 185 183 181 180 185 185 185 187 183 179 175 143 137 139 127 122 121 131 132 136 138 139
220 43 303 258 221 201 215 221 224 235 233 232 226 224 203 178 191 184 180 181 184 187 188 186 186 183 188 184 183 189 186 179 169 146 141 139 126 123 129 132 133 137 142 149
262 247 224 74 36 198 202 218 228 241 256 258 260 267 266 216 204 191 186 183 186 188 191 188 187 184 190 187 185 191 189 180 172 157 149 143 133 125 136 140 132 139 165 165
230 214 340 57 25 346 233 143 16 333 309 296 312 317 270 224 214 211 197 196 193 190 190 186 185 184 191 190 188 193 193 187 179 167 157 143 137 130 130 141 127 99 114 152
265 208 210 27 340 351 194 176 3 353 333 327 337 246 258 1 238 216 209 195 191 189 189 188 184 185 191 193 191 194 196 192 186 177 170 157 145 138 134 143 139 111 98 112
235 272 87 352 333 195 188 25 338 338 326 317 289 262 300 308 334 232 206 195 189 190 190 187 185 187 191 195 196 191 195 195 191 187 178 174 162 147 141 145 147 137 125 118
212 227 171 1 4 82 348 330 334 333 323 312 298 290 292 291 288 246 207 192 188 191 191 191 189 189 193 197 191 190 192 197 195 191 185 181 174 164 157 149 153 147 144 135
313 26 340 339 133 26 358 341 339 330 328 317 306 299 296 286 273 260 217 204 188 191 190 193 192 195 198 193 192 192 194 199 197 193 192 188 184 178 171 164 158 153 149 149
301 26 338 73 46 5 353 344 340 339 333 325 314 305 297 286 273 245 217 204 199 188 193 194 195 196 200 191 189 192 196 200 200 197 194 194 193 193 188 181 178 172 163 158
285 349 332 246 343 340 337 344 342 340 341 338 327 310 300 287 272 236 222 207 202 196 197 198 197 197 201 198 193 194 194 200 202 202 200 199 200 199 201 202 196 189 186 181
343 336 302 292 313 325 330 332 335 337 338 345 341 318 305 287 271 236 217 209 207 209 202 202 201 201 200 200 199 196 195 197 202 203 202 203 204 204 205 205 202 198 198 200
284 299 294 299 305 310 323 327 329 333 337 343 345 332 317 299 270 240 218 214 212 210 207 206 203 204 204 201 199 202 200 199 201 206 205 204 204 205 206 205 205 206 201 198
298 298 305 323 308 313 317 322 326 331 343 348 350 347 336 319 281 239 220 224 224 214 209 207 205 206 207 204 202 204 205 206 203 202 207 207 208 206 204 205 207 208 205 205
320 308 299 301 305 309 314 321 330 335 342 345 350 356 353 344 313 258 234 226 218 212 208 207 206 208 208 205 204 205 206 208 207 207 208 209 209 208 208 208 209 211 213 210
311 311 310 300 299 301 312 317 325 327 335 338 342 347 354 355 341 293 233 220 217 213 215 212 209 208 209 206 204 207 209 211 209 209 209 210 213 213 211 212 213 213 218 216
301 304 302 302 308 306 306 310 312 317 324 330 335 338 343 356 4 350 255 214 223 230 223 216 215 210 210 208 207 208 210 213 213 213 213 211 213 215 216 217 219 220 222 221
302 289 290 287 292 298 303 303 307 310 316 322 327 334 336 349 358 7 343 259 226 224 223 223 221 213 212 211 211 210 210 215 214 216 217 217 217 218 220 223 225 226 228 230
347 299 291 288 288 288 289 296 299 306 306 318 324 328 330 338 348 352 2 322 238 222 224 216 215 215 215 215 213 211 213 216 217 217 220 222 224 224 224 225 227 230 230 232
2 2 322 313 305 296 292 290 292 296 301 311 321 313 319 328 339 343 351 353 252 228 231 223 215 215 216 219 214 206 210 215 216 219 221 223 226 228 229 231 231 232 233 234
0 4 0 347 333 319 305 296 292 288 293 296 307 304 298 303 306 330 331 333 316 275 243 216 212 209 214 216 205 203 206 212 219 223 225 228 231 232 234 235 236 235 238 238
358 10 10 8 6 355 327 311 293 280 280 284 288 299 288 287 289 304 315 306 296 305 297 251 221 212 211 202 196 197 199 198 209 233 241 239 236 238 237 237 237 241 241 242
3 359 355 2 3 351 6 357 327 304 288 279 280 286 286 276 274 284 292 306 299 304 287 286 244 201 173 177 192 202 204 196 199 249 277 266 254 246 244 245 242 242 242 241
1 5 13 11 9 4 5 2 351 331 300 286 277 273 278 280 262 256 276 280 287 298 295 281 272 245 229 230 217 227 234 241 241 233 259 277 260 253 249 244 244 242 242 243
3 1 3 11 12 7 2 1 7 7 344 305 285 269 265 267 266 252 252 272 283 290 296 281 263 247 227 220 212 216 211 202 213 214 229 255 246 239 241 238 237 238 240 239
11 7 359 0 2 7 11 13 6 4 359 336 298 276 259 257 262 254 260 269 269 284 283 278 243 213 212 202 196 194 201 205 213 224 221 248 244 234 239 237 232 232 232 234
15 11 9 10 10 1 4 1 4 2 3 353 322 287 277 257 255 256 257 262 267 270 276 279 258 233 223 226 200 189 191 194 199 220 224 241 242 242 240 235 231 233 235 234
Wind_Speed_850mb
26 26 17 6 48 43 48 40 29 22 47 42 29 19 2 19 32 41 46 50 56 58 55 54 50 43 37 33 30 24 18 14 10 9 11 19 16 20 21 22 24 25 27 26
19 17 18 15 16 47 46 46 28 18 33 35 29 9 8 26 41 47 49 51 54 56 57 57 52 47 42 36 34 28 20 15 13 13 17 21 17 22 21 25 28 28 25 23
31 7 9 18 26 22 34 47 42 34 33 3 9 15 16 31 47 52 53 56 60 63 65 59 54 50 47 40 38 32 25 18 18 19 22 27 21 20 22 22 22 20 19 20
5 3 18 6 24 27 25 11 32 41 36 29 36 51 28 29 51 53 51 55 59 65 67 57 53 50 47 43 41 36 31 23 24 22 24 27 21 21 20 20 18 13 12 18
5 13 3 8 19 12 8 10 22 15 22 27 31 28 33 33 54 57 65 61 63 65 65 58 57 54 52 48 45 41 37 30 31 27 29 28 23 21 20 22 21 18 17 22
3 8 21 12 26 11 3 14 26 23 21 23 27 20 27 14 38 55 53 58 59 63 66 60 59 58 56 53 50 48 41 36 33 33 31 29 23 23 23 29 30 27 32 29
11 4 2 29 26 7 18 6 33 30 27 27 14 25 43 35 27 39 57 60 57 62 71 67 63 62 61 58 54 49 43 40 35 37 33 29 25 23 23 29 30 28 29 32
7 8 8 39 7 7 12 24 30 33 29 35 40 51 50 43 33 22 43 61 61 65 71 72 67 64 64 64 53 50 47 46 40 39 37 35 30 28 28 29 32 31 30 30
5 6 21 22 2 20 18 27 33 37 39 37 43 47 43 38 36 24 44 59 68 70 74 76 74 68 66 59 59 55 51 50 46 41 44 39 36 34 32 31 33 34 32 33
5 6 21 22 19 26 33 36 38 40 41 38 40 43 44 40 34 33 39 56 70 76 79 80 82 74 60 59 60 60 57 53 53 47 50 47 41 37 35 35 35 34 32 32
4 8 25 13 35 40 51 43 47 48 45 40 41 42 39 37 35 38 40 52 71 81 85 87 84 81 75 65 66 66 61 57 58 54 50 54 48 46 43 36 33 35 35 34
5 12 12 33 44 52 45 52 51 54 57 48 41 45 41 38 33 34 43 51 68 80 82 85 85 83 79 74 70 68 68 64 63 61 57 54 56 49 45 40 34 30 26 27
12 30 44 51 49 33 46 50 47 50 49 53 53 43 38 38 33 33 41 50 61 77 85 84 83 87 86 81 76 75 71 70 67 65 62 55 54 52 52 47 41 37 33 33
30 26 21 21 40 56 48 45 45 42 43 46 53 47 41 36 28 33 48 56 56 63 75 82 82 83 83 83 81 76 75 69 68 69 68 62 57 53 46 46 51 50 47 43
23 22 31 44 57 53 40 39 44 43 48 54 53 55 48 39 24 20 33 40 51 58 61 77 80 82 80 81 83 81 81 77 72 68 68 68 61 55 49 44 45 42 50 51
39 36 37 34 43 45 39 40 41 44 46 52 53 54 53 41 31 19 20 34 51 60 64 69 82 84 79 79 81 84 83 79 76 72 70 70 72 65 57 54 51 47 50 53
35 35 33 43 43 48 44 39 38 41 44 47 51 52 48 45 30 18 13 29 36 51 60 64 70 84 80 79 81 86 86 85 82 77 74 71 72 75 68 63 60 57 59 55
34 35 35 42 47 51 50 43 41 43 41 45 46 48 43 45 42 34 20 14 28 38 46 49 58 73 81 80 80 82 86 88 86 86 80 77 76 73 73 71 67 65 63 62
46 33 32 35 39 43 47 44 41 44 46 43 44 43 40 38 42 31 23 10 7 14 30 41 49 55 69 76 78 77 78 84 85 87 85 81 79 76 74 74 73 70 66 63
51 33 26 30 31 33 40 44 41 39 41 45 41 35 35 33 36 31 20 10 7 7 12 24 36 45 54 63 65 67 70 71 75 81 82 80 82 83 80 78 76 76 73 72
55 47 47 39 37 34 35 38 40 41 40 45 43 37 34 36 29 32 25 14 12 10 16 15 28 37 45 53 57 53 57 59 61 66 72 79 77 77 80 82 80 79 78 79
52 53 47 47 48 44 35 33 32 38 39 45 47 41 33 35 33 31 32 24 20 21 19 22 25 22 37 52 59 53 58 59 45 42 56 67 72 75 75 75 75 74 74 77
50 43 44 48 54 45 46 37 30 30 34 42 46 48 38 35 33 37 32 22 20 21 25 24 22 39 37 37 52 60 52 48 34 33 54 69 70 69 69 73 66 63 59 64
52 47 50 49 45 43 55 52 39 30 27 35 47 49 47 42 41 40 35 33 31 29 29 27 27 29 51 60 53 57 67 78 59 79 103 92 84 63 64 66 69 64 59 57
43 42 40 46 51 52 51 46 50 48 35 33 40 50 50 51 47 42 40 37 30 34 31 31 28 27 39 50 49 65 71 66 69 84 91 103 75 52 54 60 64 61 60 57
44 46 39 40 43 43 49 57 49 57 63 49 43 46 55 57 58 56 55 54 42 37 35 35 33 40 46 52 51 45 47 48 33 35 50 61 48 44 54 57 55 58 59 58
35 40 40 47 50 42 52 59 63 63 65 60 48 44 41 54 66 65 59 56 52 45 42 39 42 42 49 39 42 45 38 34 24 25 37 48 33 35 40 42 43 48 50 50
Wind_Direction_850mb
290 278 286 254 201 196 201 210 213 207 224 244 269 307 304 164 166 163 169 174 180 179 182 181 179 175 181 185 186 185 184 175 184 151 121 136 121 114 123 127 131 135 139 140
259 226 248 258 217 214 205 204 216 210 243 236 244 259 189 164 175 174 177 177 182 183 185 183 181 180 185 185 185 187 183 179 175 143 137 139 127 122 121 131 132 136 138 139
220 43 303 258 221 201 215 221 224 235 233 232 226 224 203 178 191 184 180 181 184 187 188 186 186 183 188 184 183 189 186 179 169 146 141 139 126 123 129 132 133 137 142 149
262 247 224 74 36 198 202 218 228 241 256 258 260 267 266 216 204 191 186 183 186 188 191 188 187 184 190 187 185 191 189 180 172 157 149 143 133 125 136 140 132 139 165 165
230 214 340 57 25 346 233 143 16 333 309 296 312 317 270 224 214 211 197 196 193 190 190 186 185 184 191 190 188 193 193 187 179 167 157 143 137 130 130 141 127 99 114 152
265 208 210 27 340 351 194 176 3 353 333 327 337 246 258 1 238 216 209 195 191 189 189 188 184 185 191 193 191 194 196 192 186 177 170 157 145 138 134 143 139 111 98 112
235 272 87 352 333 195 188 25 338 338 326 317 289 262 300 308 334 232 206 195 189 190 190 187 185 187 191 195 196 191 195 195 191 187 178 174 162 147 141 145 147 137 125 118
212 227 171 1 4 82 348 330 334 333 323 312 298 290 292 291 288 246 207 192 188 191 191 191 189 189 193 197 191 190 192 197 195 191 185 181 174 164 157 149 153 147 144 135
313 26 340 339 133 26 358 341 339 330 328 317 306 299 296 286 273 260 217 204 188 191 190 193 192 195 198 193 192 192 194 199 197 193 192 188 184 178 171 164 158 153 149 149
301 26 338 73 46 5 353 344 340 339 333 325 314 305 297 286 273 245 217 204 199 188 193 194 195 196 200 191 189 192 196 200 200 197 194 194 193 193 188 181 178 172 163 158
285 349 332 246 343 340 337 344 342 340 341 338 327 310 300 287 272 236 222 207 202 196 197 198 197 197 201 198 193 194 194 200 202 202 200 199 200 199 201 202 196 189 186 181
343 336 302 292 313 325 330 332 335 337 338 345 341 318 305 287 271 236 217 209 207 209 202 202 201 201 200 200 199 196 195 197 202 203 202 203 204 204 205 205 202 198 198 200
284 299 294 299 305 310 323 327 329 333 337 343 345 332 317 299 270 240 218 214 212 210 207 206 203 204 204 201 199 202 200 199 201 206 205 204 204 205 206 205 205 206 201 198
298 298 305 323 308 313 317 322 326 331 343 348 350 347 336 319 281 239 220 224 224 214 209 207 205 206 207 204 202 204 205 206 203 202 207 207 208 206 204 205 207 208 205 205
320 308 299 301 305 309 314 321 330 335 342 345 350 356 353 344 313 258 234 226 218 212 208 207 206 208 208 205 204 205 206 208 207 207 208 209 209 208 208 208 209 211 213 210
311 311 310 300 299 301 312 317 325 327 335 338 342 347 354 355 341 293 233 220 217 213 215 212 209 208 209 206 204 207 209 211 209 209 209 210 213 213 211 212 213 213 218 216
301 304 302 302 308 306 306 310 312 317 324 330 335 338 343 356 4 350 255 214 223 230 223 216 215 210 210 208 207 208 210 213 213 213 213 211 213 215 216 217 219 220 222 221
302 289 290 287 292 298 303 303 307 310 316 322 327 334 336 349 358 7 343 259 226 224 223 223 221 213 212 211 211 210 210 215 214 216 217 217 217 218 220 223 225 226 228 230
347 299 291 288 288 288 289 296 299 306 306 318 324 328 330 338 348 352 2 322 238 222 224 216 215 215 215 215 213 211 213 216 217 217 220 222 224 224 224 225 227 230 230 232
2 2 322 313 305 296 292 290 292 296 301 311 321 313 319 328 339 343 351 353 252 228 231 223 215 215 216 219 214 206 210 215 216 219 221 223 226 228 229 231 231 232 233 234
0 4 0 347 333 319 305 296 292 288 293 296 307 304 298 303 306 330 331 333 316 275 243 216 212 209 214 216 205 203 206 212 219 223 225 228 231 232 234 235 236 235 238 238
358 10 10 8 6 355 327 311 293 280 280 284 288 299 288 287 289 304 315 306 296 305 297 251 221 212 211 202 196 197 199 198 209 233 241 239 236 238 237 237 237 241 241 242
3 359 355 2 3 351 6 357 327 304 288 279 280 286 286 276 274 284 292 306 299 304 287 286 244 201 173 177 192 202 204 196 199 249 277 266 254 246 244 245 242 242 242 241
1 5 13 11 9 4 5 2 351 331 300 286 277 273 278 280 262 256 276 280 287 298 295 281 272 245 229 230 217 227 234 241 241 233 259 277 260 253 249 244 244 242 242 243
3 1 3 11 12 7 2 1 7 7 344 305 285 269 265 267 266 252 252 272 283 290 296 281 263 247 227 220 212 216 211 202 213 214 229 255 246 239 241 238 237 238 240 239
11 7 359 0 2 7 11 13 6 4 359 336 298 276 259 257 262 254 260 269 269 284 283 278 243 213 212 202 196 194 201 205 213 224 221 248 244 234 239 237 232 232 232 234
15 11 9 10 10 1 4 1 4 2 3 353 322 287 277 257 255 256 257 262 267 270 276 279 258 233 223 226 200 189 191 194 199 220 224 241 242 242 240 235 231 233 235 234